Zurück zum Katalog

STARLINK-35245

AktivKommunikationSSO
NORAD 65599·PAYLOAD·🇺🇸 United States

Gestartet Sep 13, 2025 von Cape Canaveral Space Force Station

Loading…

Nächste Überflüge (nächste 24 Stunden)

TLE

AktuellSource: CelesTrak SupGP

Epoche: Sep 14, 2026, 14:03 UTC

1 65599C 25207H   26257.58590278  .00075974  00000+0  52743-2 0  2577
2 65599  97.2854 320.3183 0001660 124.8996  83.3550 15.05622994    11

Verfolge STARLINK-35245 in Echtzeit mit AllMySat

Download on the App Store